ATLAS AGENA B DEB, 631

Orbit data source: Space-Track

ATLAS AGENA B DEB, 631 is space debris in LEO originally from a launch on Fri, 19 Jul 1963 UTC launched from the Air Force Western Test Range (AFWTR). Debris objects in space refer to the collection of defunct objects orbiting the Earth. Examples of debris include non-operational satellites, rocket bodies, and fragments generated from explosions, collisions, or faulty payload assembly.

Loading next visibility...
Identifier
631, 1963-030E
Orbit
LEO
Last TLE update
1 day ago
Origin
Manufacturer
Unknown
Mission
Spacecraft
Bus & Motor
Unknown
Mass
~10 kg wet, ~10 kg dry
Launch date (UTC)
1963-07-19 (62 years ago)
Launch vehicle
Unknown
Launch site
Air Force Western Test Range (AFWTR)
Object type
Payload
Rocket body
Debris
Shape & HBR
Box, 1.5 m
Radar Cross Section
1.575 m², Medium (>0.1 m² and < 1m²)

Expand to show TLE details & history

TLE from 1 day ago
0 ATLAS AGENA B DEB
1 00631U 63030E   25132.25283822  .00000003  00000-0  00000-0 0  9990
2 00631  88.4071 239.2914 0170463 122.4365 239.3095  8.55878615931337
Epoch: 2025-05-12T06:04Z
Definitive object data (Epoch: 2025-05-12T06:04:05.222Z)
Latitude
-0°
Longitude
-81.99894°
Altitude
3,809.509 km
Speed
6.228 km/s
True Right ascension
15h 57m 09s
True Declination
0° 00' 00"
Sunlit
Object was in full shadow at TLE epoch
Visualization TLE readout
Latitude
-50.16897°
Longitude
-83.95967°
Altitude
3,906.681 km
Speed
6.173 km/s
Apparent Right ascension
17h 09m 49s
Apparent Declination
-81° 11' 18"
Sunlit
Object is in full shadow
Visualization observer readout
Local Sidereal Time
15:19:25
Azimuth
175.2° S
Elevation
-32.003°
Doppler factor
1
Orbital elements
Apogee altitude
3,887.228 km
Perigee altitude
3,543.121 km
Semi-major axis
10,093.311 km
Eccentricity
0.0170463
Inclination
88.4071°
RAAN
239.2914°
Arg. of periapsis
122.4365°
True anomaly
237.64804°
Mean anomaly
239.3095°
Eccentric anomaly
238.47695°
Mean motion
2.14039 °/min
BSTAR
Unknown
Orbital period
168.19 mins
Loading maneuver chart data...
Loading SW <> Apogee altitude chart data...
Loading historical data...
Loading historical data...
Loading historical data...
Loading historical data...
Loading historical data...
Loading historical data...
Loading historical data...

ATLAS AGENA B DEB Visibility forecast

Observer location: undefined°, undefined°

Span
Click to sort rows by Start time (UTC) header in descending order
Start Az.
Max El. time (UTC)
Max El. Az.
Max El.
End time (UTC)
End Az.
37 mins2025-05-13 07:18:44.764Z174.788° S2025-05-13 07:37:44.764Z353.808° N44.995°2025-05-13 07:55:44.764Z0.748° NNE
26 mins2025-05-13 10:16:44.764Z252.852° W2025-05-13 10:28:44.764Z295.657° NW21.179°2025-05-13 10:42:44.764Z346.38° N
26 mins2025-05-13 16:32:44.764Z16.37° NNE2025-05-13 16:45:44.764Z66.67° ENE22.952°2025-05-13 16:58:44.764Z114.934° SE
35 mins2025-05-13 19:19:44.764Z358.406° N2025-05-13 19:36:44.764Z251.877° W44.801°2025-05-13 19:54:44.764Z189.496° SSW
20 mins2025-05-13 22:10:44.764Z337.913° N2025-05-13 22:19:44.764Z304.626° NW19.24°2025-05-13 22:30:44.764Z265.115° W
33 mins2025-05-14 05:48:44.764Z138.59° SSE2025-05-14 06:05:44.764Z69.767° E36.615°2025-05-14 06:21:44.764Z7.431° NNE
|